EN

Hourly Weather Chengalpattu

Today, 25 November, Wednesday

Time Temperature Precipitation Wind Pressure Humidity
00:00 +26°C° 1.1 mm 7 mps 753 mmHg 90%
01:00 +26°C° 1.1 mm 7 mps 752 mmHg 90%
02:00 +26°C° 1.1 mm 7 mps 752 mmHg 90%
03:00 +26°C° 1.1 mm 7 mps 752 mmHg 90%
04:00 +26°C° 1.1 mm 7 mps 752 mmHg 90%
05:00 +26°C° 1.1 mm 7 mps 752 mmHg 90%
06:00 +26°C° 1.1 mm 7 mps 752 mmHg 89%
07:00 +26°C° 1.1 mm 8 mps 752 mmHg 88%
08:00 +26°C° 1.1 mm 8 mps 753 mmHg 88%
09:00 +26°C° 9.5 mm 8 mps 752 mmHg 90%
10:00 +26°C° 9.5 mm 8 mps 752 mmHg 92%
11:00 +26°C° 9.5 mm 8 mps 751 mmHg 93%
12:00 +26°C° 2.3 mm 8 mps 750 mmHg 94%
13:00 +26°C° 2.3 mm 8 mps 750 mmHg 94%
14:00 +24°C° 2.3 mm 8 mps 749 mmHg 94%
15:00 +26°C° 2.1 mm 9 mps 749 mmHg 92%
16:00 +27°C° 2.1 mm 9 mps 749 mmHg 91%
17:00 +27°C° 2.1 mm 9 mps 748 mmHg 89%
18:00 +27°C° 3.4 mm 10 mps 749 mmHg 90%
19:00 +27°C° 3.4 mm 12 mps 749 mmHg 91%
20:00 +27°C° 3.4 mm 13 mps 749 mmHg 92%
21:00 +27°C° 2.6 mm 13 mps 749 mmHg 91%
22:00 +27°C° 2.6 mm 13 mps 749 mmHg 89%
23:00 +28°C° 2.6 mm 14 mps 748 mmHg 88%

Tomorrow, 26 November, Thursday

Time Temperature Precipitation Wind Pressure Humidity
00:00 +28°C° 1.3 mm 14 mps 748 mmHg 87%
01:00 +28°C° 1.3 mm 14 mps 747 mmHg 86%
02:00 +28°C° 1.3 mm 15 mps 747 mmHg 86%
03:00 +27°C° 0.7 mm 13 mps 747 mmHg 87%
04:00 +27°C° 0.7 mm 12 mps 747 mmHg 89%
05:00 +26°C° 0.7 mm 11 mps 748 mmHg 90%
06:00 +26°C° 0.6 mm 12 mps 749 mmHg 88%
07:00 +27°C° 0.6 mm 12 mps 750 mmHg 86%
08:00 +27°C° 0.6 mm 13 mps 751 mmHg 84%
09:00 +27°C° 0.1 mm 13 mps 751 mmHg 82%
10:00 +28°C° 0.1 mm 13 mps 751 mmHg 79%
11:00 +28°C° 0.1 mm 13 mps 751 mmHg 77%
12:00 +28°C° 0.5 mm 12 mps 751 mmHg 78%
13:00 +28°C° 0.5 mm 10 mps 750 mmHg 78%
14:00 +28°C° 0.5 mm 9 mps 750 mmHg 79%
15:00 +28°C° 0.5 mm 9 mps 750 mmHg 80%
16:00 +28°C° 0.5 mm 8 mps 751 mmHg 81%
17:00 +27°C° 0.5 mm 8 mps 751 mmHg 82%
18:00 +27°C° 0.3 mm 8 mps 752 mmHg 82%
19:00 +27°C° 0.3 mm 7 mps 752 mmHg 83%
20:00 +27°C° 0.3 mm 6 mps 753 mmHg 84%
21:00 +27°C° 0.9 mm 6 mps 753 mmHg 84%
22:00 +27°C° 0.9 mm 6 mps 753 mmHg 84%
23:00 +27°C° 0.9 mm 6 mps 753 mmHg 85%

Day after tomorrow, 27 November, Friday

Time Temperature Precipitation Wind Pressure Humidity
00:00 +27°C° 1.4 mm 6 mps 753 mmHg 85%
01:00 +27°C° 1.4 mm 6 mps 752 mmHg 85%
02:00 +27°C° 1.4 mm 6 mps 752 mmHg 85%
03:00 +26°C° 0.4 mm 5 mps 752 mmHg 86%
04:00 +26°C° 0.4 mm 4 mps 752 mmHg 87%
05:00 +26°C° 0.4 mm 4 mps 753 mmHg 88%
06:00 +27°C° 0.3 mm 4 mps 753 mmHg 84%
07:00 +28°C° 0.3 mm 5 mps 754 mmHg 80%
08:00 +29°C° 0.3 mm 5 mps 755 mmHg 75%
09:00 +30°C° 0.8 mm 5 mps 755 mmHg 72%
10:00 +32°C° 0.8 mm 5 mps 755 mmHg 69%
11:00 +33°C° 0.8 mm 5 mps 755 mmHg 66%
12:00 +33°C° 0.6 mm 5 mps 754 mmHg 66%
13:00 +33°C° 0.6 mm 5 mps 753 mmHg 65%
14:00 +33°C° 0.6 mm 4 mps 753 mmHg 65%
15:00 +32°C° 0.4 mm 4 mps 753 mmHg 70%
16:00 +29°C° 0.4 mm 3 mps 753 mmHg 75%
17:00 +28°C° 0.4 mm 3 mps 754 mmHg 80%
18:00 +28°C° 0.6 mm 2 mps 754 mmHg 82%
19:00 +27°C° 0.6 mm 2 mps 755 mmHg 85%
20:00 +27°C° 0.6 mm 2 mps 756 mmHg 87%
21:00 +27°C° 1.2 mm 2 mps 756 mmHg 87%
22:00 +26°C° 1.2 mm 3 mps 756 mmHg 87%
23:00 +26°C° 1.2 mm 3 mps 756 mmHg 87%

28 November, Saturday

Time Temperature Precipitation Wind Pressure Humidity
00:00 +26°C° 1.2 mm 3 mps 755 mmHg 87%
01:00 +26°C° 1.2 mm 2 mps 755 mmHg 87%
02:00 +26°C° 1.2 mm 2 mps 755 mmHg 87%
03:00 +26°C° 0.6 mm 2 mps 755 mmHg 87%
04:00 +26°C° 0.6 mm 2 mps 755 mmHg 87%
05:00 +26°C° 0.6 mm 2 mps 755 mmHg 87%
06:00 +27°C° 0.3 mm 2 mps 756 mmHg 83%
07:00 +28°C° 0.3 mm 3 mps 756 mmHg 80%
08:00 +29°C° 0.3 mm 3 mps 757 mmHg 76%
09:00 +30°C° 0.3 mm 3 mps 757 mmHg 73%
10:00 +30°C° 0.3 mm 4 mps 756 mmHg 70%
11:00 +32°C° 0.3 mm 4 mps 756 mmHg 66%
12:00 +32°C° 0.5 mm 4 mps 755 mmHg 67%
13:00 +32°C° 0.5 mm 4 mps 755 mmHg 68%
14:00 +32°C° 0.5 mm 5 mps 754 mmHg 68%
15:00 +30°C° 1.1 mm 4 mps 754 mmHg 73%
16:00 +29°C° 1.1 mm 4 mps 754 mmHg 79%
17:00 +28°C° 1.1 mm 4 mps 755 mmHg 84%
18:00 +27°C° 1.5 mm 4 mps 755 mmHg 85%
19:00 +27°C° 1.5 mm 4 mps 756 mmHg 86%
20:00 +27°C° 1.5 mm 4 mps 757 mmHg 88%
21:00 +27°C° 2 mm 4 mps 757 mmHg 88%
22:00 +27°C° 2 mm 4 mps 756 mmHg 89%
23:00 +27°C° 2 mm 4 mps 756 mmHg 90%

29 November, Sunday

Time Temperature Precipitation Wind Pressure Humidity
00:00 +26°C° 1.3 mm 4 mps 756 mmHg 90%
01:00 +26°C° 1.3 mm 4 mps 755 mmHg 91%
02:00 +26°C° 1.3 mm 4 mps 755 mmHg 91%
03:00 +26°C° 0.8 mm 4 mps 755 mmHg 92%
04:00 +26°C° 0.8 mm 3 mps 755 mmHg 93%
05:00 +25°C° 0.8 mm 3 mps 755 mmHg 94%
06:00 +26°C° 0.7 mm 4 mps 756 mmHg 90%
07:00 +27°C° 0.7 mm 4 mps 757 mmHg 86%
08:00 +28°C° 0.7 mm 5 mps 757 mmHg 82%
09:00 +29°C° 0.6 mm 5 mps 757 mmHg 78%
10:00 +30°C° 0.6 mm 6 mps 756 mmHg 75%
11:00 +32°C° 0.6 mm 7 mps 756 mmHg 71%
12:00 +32°C° 0.1 mm 7 mps 755 mmHg 71%
13:00 +30°C° 0.1 mm 7 mps 755 mmHg 71%
14:00 +30°C° 0.1 mm 7 mps 754 mmHg 71%
15:00 +29°C° 0 mm 6 mps 754 mmHg 75%
16:00 +28°C° 0 mm 6 mps 754 mmHg 78%
17:00 +27°C° 0 mm 5 mps 754 mmHg 82%
18:00 +27°C° 0 mm 5 mps 755 mmHg 83%
19:00 +27°C° 0 mm 4 mps 756 mmHg 85%
20:00 +26°C° 0 mm 4 mps 756 mmHg 86%
21:00 +26°C° 0.1 mm 4 mps 756 mmHg 87%
22:00 +26°C° 0.1 mm 4 mps 756 mmHg 88%
23:00 +26°C° 0.1 mm 4 mps 756 mmHg 89%

30 November, Monday

Time Temperature Precipitation Wind Pressure Humidity
00:00 +25°C° 0 mm 4 mps 755 mmHg 90%
01:00 +25°C° 0 mm 4 mps 755 mmHg 90%
02:00 +25°C° 0 mm 4 mps 755 mmHg 91%
03:00 +25°C° 0.1 mm 4 mps 755 mmHg 91%
04:00 +25°C° 0.1 mm 4 mps 755 mmHg 91%
05:00 +25°C° 0.1 mm 4 mps 755 mmHg 92%
06:00 +26°C° 0.2 mm 4 mps 755 mmHg 88%
07:00 +27°C° 0.2 mm 5 mps 756 mmHg 85%
08:00 +28°C° 0.2 mm 5 mps 756 mmHg 82%
09:00 +29°C° 0.4 mm 6 mps 756 mmHg 78%
10:00 +30°C° 0.4 mm 6 mps 756 mmHg 74%
11:00 +32°C° 0.4 mm 7 mps 756 mmHg 70%
12:00 +32°C° 0.1 mm 7 mps 755 mmHg 69%
13:00 +32°C° 0.1 mm 7 mps 754 mmHg 67%
14:00 +32°C° 0.1 mm 7 mps 754 mmHg 66%
15:00 +30°C° 0 mm 6 mps 754 mmHg 70%
16:00 +29°C° 0 mm 6 mps 754 mmHg 74%
17:00 +28°C° 0 mm 5 mps 754 mmHg 78%
18:00 +27°C° 0 mm 5 mps 755 mmHg 81%
19:00 +27°C° 0 mm 4 mps 755 mmHg 83%
20:00 +26°C° 0 mm 4 mps 756 mmHg 86%
21:00 +26°C° 0 mm 4 mps 756 mmHg 87%
22:00 +25°C° 0 mm 4 mps 756 mmHg 88%
23:00 +25°C° 0 mm 4 mps 756 mmHg 89%
Show more